1506398400.21,8643,14.13,74500.3,0.59,-0.53,-0.61,0,*79
1506398401.39,8644,14.13,74504.5,0.59,-0.61,-0.53,0,*7E
1506398402.58,8645,14.13,74500.3,0.59,-0.65,-0.53,0,*7B
1506398403.75,8646,14.13,74504.8,0.61,-0.57,-0.49,0,*79
1506398404.93,8647,14.13,74502.5,0.59,-0.61,-0.73,0,*7F
1506398406.12,8648,14.13,74502.3,0.59,-0.53,-0.61,0,*72
1506398407.3,8649,14.13,74502.3,0.59,-0.65,-0.61,0,*76
1506398408.49,8650,14.13,74508.0,0.59,-0.49,-0.53,0,*71
1506398409.65,8651,14.13,74510.3,0.61,-0.49,-0.49,0,*70
1506398410.84,8652,14.13,74514.8,0.59,-0.49,-0.49,0,*78
1506398412.03,8653,14.13,74512.0,0.59,-0.37,-0.49,0,*70
1506398413.23,8654,14.13,74514.3,0.59,-0.41,-0.41,0,*7E
1506398414.39,8655,14.13,74512.5,0.61,-0.45,-0.45,0,*74
1506398415.56,8656,14.13,74508.5,0.61,-0.57,-0.45,0,*74
1506398416.73,8657,14.13,74510.5,0.61,-0.57,-0.57,0,*76
1506398417.89,8658,14.13,74508.5,0.61,-0.45,-0.37,0,*7C
1506398419.09,8659,14.13,74506.5,0.59,-0.41,-0.41,0,*73
1506398420.29,8660,14.13,74508.8,0.59,-0.41,-0.41,0,*79
1506398421.49,8661,14.13,74504.5,0.59,-0.41,-0.49,0,*70
1506398422.68,8662,14.13,74506.8,0.59,-0.49,-0.41,0,*73
1506398423.86,8663,14.13,74504.8,0.59,-0.53,-0.53,0,*7A
1506398425.06,8664,14.13,74504.5,0.59,-0.53,-0.49,0,*76
1506398426.23,8665,14.13,74502.8,0.59,-0.61,-0.61,0,*7C
1506398427.41,8666,14.13,74506.3,0.59,-0.61,-0.61,0,*7F
1506398428.59,8667,14.13,74500.3,0.59,-0.61,-0.61,0,*7E
1506398429.77,8668,14.13,74502.3,0.59,-0.61,-0.53,0,*70
1506398430.94,8669,14.13,74500.0,0.61,-0.57,-0.49,0,*74
1506398432.12,8670,14.13,74500.5,0.59,-0.49,-0.53,0,*73
1506398433.31,8671,14.13,74502.0,0.59,-0.53,-0.53,0,*79
1506398434.5,8672,14.13,74500.5,0.59,-0.53,-0.53,0,*7A
1506398435.69,8673,14.13,74506.8,0.59,-0.53,-0.49,0,*70
1506398436.9,8674,14.13,74500.8,0.59,-0.27,-0.29,0,*72
1506398438.1,8675,14.13,74498.0,0.59,-0.41,-0.41,0,*7D
1506398439.28,8676,14.13,74502.5,0.59,-0.49,-0.53,0,*75
1506398440.47,8677,14.13,74504.5,0.59,-0.73,-0.65,0,*78
1506398441.66,8678,14.13,74504.3,0.59,-0.73,-0.65,0,*77
1506398442.84,8679,14.13,74506.8,0.59,-0.61,-0.61,0,*71
1506398444.02,8680,14.13,74508.8,0.59,-0.53,-0.61,0,*76
1506398445.2,8681,14.13,74510.0,0.59,-0.61,-0.61,0,*76
1506398446.38,8682,14.13,74510.0,0.59,-0.61,-0.61,0,*75
1506398447.55,8683,14.13,74504.8,0.61,-0.57,-0.49,0,*70
1506398448.72,8684,14.13,74508.3,0.59,-0.61,-0.61,0,*73
1506398449.91,8685,14.13,74508.5,0.59,-0.49,-0.49,0,*72
1506398451.11,8686,14.13,74506.3,0.59,-0.41,-0.41,0,*71
1506398452.3,8687,14.13,74510.5,0.59,-0.37,-0.29,0,*7F
1506398453.48,8688,14.13,74512.5,0.59,-0.37,-0.29,0,*70
1506398454.66,8689,14.13,74512.0,0.59,-0.29,-0.29,0,*7E
1506398455.82,8690,14.13,74508.0,0.57,-0.33,-0.33,0,*78
1506398457.01,8691,14.13,74508.0,0.57,-0.33,-0.23,0,*78
1506398458.2,8692,14.13,74510.0,0.59,-0.37,-0.37,0,*74
1506398459.39,8693,14.13,74504.0,0.59,-0.37,-0.37,0,*75
1506398460.58,8694,14.13,74500.5,0.59,-0.41,-0.37,0,*73
1506398461.78,8695,14.13,74502.8,0.59,-0.41,-0.37,0,*72
1506398462.96,8696,14.13,74500.0,0.59,-0.49,-0.53,0,*7B
1506398464.15,8697,14.13,74500.8,0.59,-0.53,-0.53,0,*71
1506398465.33,8698,14.13,74500.5,0.59,-0.61,-0.65,0,*7A
1506398466.51,8699,14.13,74496.8,0.59,-0.61,-0.61,0,*7F
1506398467.68,8700,14.13,74496.3,0.59,-0.61,-0.61,0,*7E
1506398468.87,8701,14.13,74502.0,0.59,-0.49,-0.61,0,*75
1506398470.05,8702,14.13,74504.5,0.59,-0.53,-0.53,0,*7C
1506398471.23,8703,14.13,74506.3,0.59,-0.61,-0.53,0,*7C
1506398472.42,8704,14.13,74510.3,0.59,-0.53,-0.53,0,*7A
1506398473.61,8705,14.13,74510.3,0.59,-0.49,-0.49,0,*7B
1506398474.77,8706,14.13,74508.5,0.57,-0.57,-0.57,0,*76
1506398475.93,8707,14.13,74514.5,0.57,-0.45,-0.53,0,*70
1506398477.09,8708,14.13,74510.8,0.57,-0.65,-0.65,0,*78
1506398478.25,8709,14.13,74510.5,0.57,-0.65,-0.57,0,*78
1506398479.41,8710,14.13,74508.3,0.57,-0.65,-0.57,0,*70
1506398480.57,8711,14.13,74512.3,0.57,-0.45,-0.45,0,*70
1506398481.74,8712,14.13,74514.5,0.57,-0.33,-0.41,0,*76
1506398482.9,8713,14.13,74514.5,0.57,-0.41,-0.45,0,*76
1506398484.07,8714,14.13,74516.3,0.57,-0.45,-0.41,0,*71
1506398485.26,8715,14.13,74512.3,0.59,-0.29,-0.37,0,*75
1506398486.45,8716,14.13,74514.5,0.59,-0.29,-0.41,0,*77
1506398487.64,8717,14.13,74516.3,0.59,-0.37,-0.37,0,*78
1506398488.82,8718,14.13,74516.3,0.59,-0.29,-0.29,0,*77
1506398490.0,8719,14.13,74522.0,0.59,-0.29,-0.29,0,*76
1506398491.17,8720,14.13,74518.3,0.61,-0.37,-0.37,0,*77
1506398492.38,8721,14.13,74522.3,0.59,-0.27,-0.29,0,*73
1506398493.57,8722,14.13,74524.0,0.59,-0.37,-0.37,0,*7E
1506398494.76,8723,14.13,74520.5,0.59,-0.49,-0.53,0,*74
1506398495.95,8724,14.13,74522.0,0.59,-0.49,-0.41,0,*70
1506398497.14,8725,14.13,74518.3,0.59,-0.41,-0.49,0,*71
1506398498.34,8726,14.13,74524.0,0.59,-0.41,-0.41,0,*7A
1506398499.54,8727,14.13,74518.5,0.59,-0.41,-0.41,0,*7B
1506398500.73,8728,14.13,74522.3,0.59,-0.37,-0.29,0,*7B
1506398501.91,8729,14.13,74518.3,0.59,-0.29,-0.29,0,*75
1506398503.12,8730,14.13,74518.3,0.59,-0.19,-0.27,0,*70
1506398504.31,8731,14.13,74520.3,0.59,-0.33,-0.33,0,*7C
1506398505.49,8732,14.13,74522.5,0.59,-0.29,-0.29,0,*7F
1506398506.7,8733,14.13,74526.3,0.59,-0.37,-0.27,0,*7F
1506398507.89,8734,14.13,74522.0,0.59,-0.37,-0.29,0,*76
1506398509.08,8735,14.13,74520.3,0.59,-0.37,-0.37,0,*78
1506398510.26,8736,14.13,74524.0,0.59,-0.37,-0.29,0,*74
1506398511.45,8737,14.13,74522.8,0.59,-0.37,-0.29,0,*75
1506398512.63,8738,14.13,74522.0,0.61,-0.33,-0.23,0,*7F
1506398513.82,8739,14.13,74512.5,0.61,-0.33,-0.27,0,*7A
1506398515.01,8740,14.13,74516.5,0.59,-0.41,-0.37,0,*7B
1506398516.18,8741,14.13,74510.8,0.61,-0.45,-0.45,0,*70
1506398517.38,8742,14.13,74512.0,0.59,-0.41,-0.41,0,*78
1506398518.54,8743,14.13,74516.0,0.61,-0.37,-0.33,0,*76
1506398519.72,8744,14.13,74516.3,0.59,-0.29,-0.29,0,*7E
1506398520.89,8745,14.13,74514.5,0.61,-0.33,-0.33,0,*74
1506398522.05,8746,14.13,74508.8,0.61,-0.45,-0.45,0,*77
1506398523.22,8747,14.13,74516.5,0.61,-0.49,-0.49,0,*76
1506398524.41,8748,14.13,74512.8,0.59,-0.53,-0.41,0,*71
1506398525.58,8749,14.13,74520.5,0.61,-0.45,-0.45,0,*78
1506398526.75,8750,14.13,74516.8,0.61,-0.37,-0.37,0,*70
1506398527.94,8751,14.13,74516.8,0.59,-0.53,-0.41,0,*79
1506398529.14,8752,14.13,74518.8,0.59,-0.41,-0.41,0,*79
1506398530.33,8753,14.13,74520.0,0.59,-0.41,-0.29,0,*76
1506398531.49,8754,14.13,74518.5,0.61,-0.45,-0.45,0,*74
1506398532.66,8755,14.13,74514.5,0.61,-0.37,-0.45,0,*70
1506398533.83,8756,14.13,74510.0,0.61,-0.37,-0.41,0,*77
1506398535.03,8757,14.13,74508.5,0.59,-0.41,-0.41,0,*7C
1506398536.21,8758,14.13,74510.0,0.59,-0.53,-0.53,0,*73
1506398537.38,8759,14.13,74514.8,0.61,-0.57,-0.57,0,*79
1506398538.56,8760,14.13,74508.3,0.59,-0.65,-0.65,0,*78
1506398539.75,8761,14.13,74508.8,0.59,-0.53,-0.53,0,*79
1506398540.92,8762,14.13,74504.8,0.61,-0.57,-0.49,0,*7E
1506398542.1,8763,14.13,74506.8,0.59,-0.61,-0.53,0,*7A
1506398543.29,8764,14.13,74510.8,0.59,-0.53,-0.49,0,*77
1506398544.49,8765,14.13,74508.5,0.59,-0.41,-0.41,0,*7D
1506398545.68,8766,14.13,74512.3,0.59,-0.37,-0.37,0,*7E
1506398546.89,8767,14.13,74510.8,0.59,-0.29,-0.27,0,*71
1506398548.06,8768,14.13,74516.5,0.61,-0.33,-0.37,0,*7F
1506398549.24,8769,14.13,74504.5,0.59,-0.29,-0.37,0,*7E
1506398550.44,8770,14.13,74514.3,0.59,-0.37,-0.37,0,*79
1506398551.62,8771,14.13,74514.5,0.59,-0.29,-0.37,0,*77
1506398552.84,8772,14.13,74512.3,0.61,-0.27,-0.27,0,*70
1506398554.02,8773,14.13,74518.3,0.59,-0.29,-0.37,0,*75
1506398555.19,8774,14.13,74516.8,0.61,-0.49,-0.37,0,*7F
1506398556.39,8775,14.13,74520.3,0.59,-0.41,-0.41,0,*7C
1506398557.55,8776,14.13,74518.0,0.61,-0.45,-0.45,0,*74
1506398558.72,8777,14.13,74518.0,0.61,-0.37,-0.37,0,*75
1506398559.9,8778,14.13,74516.8,0.59,-0.29,-0.29,0,*71
1506398561.09,8779,14.13,74518.8,0.59,-0.49,-0.49,0,*70
1506398562.28,8780,14.13,74518.3,0.59,-0.41,-0.49,0,*7E
1506398563.49,8781,14.13,74514.5,0.59,-0.27,-0.29,0,*79
1506398564.71,8782,14.13,74514.3,0.61,-0.27,-0.27,0,*7F
1506398565.87,8783,14.13,74516.0,0.61,-0.37,-0.33,0,*7A
1506398567.07,8784,14.13,74512.0,0.59,-0.49,-0.41,0,*7A
1506398568.25,8785,14.13,74512.5,0.59,-0.49,-0.53,0,*78
1506398569.41,8786,14.13,74514.8,0.61,-0.69,-0.61,0,*73
1506398570.61,8787,14.13,74518.0,0.59,-0.73,-0.73,0,*71
1506398571.79,8788,14.13,74514.8,0.59,-0.65,-0.65,0,*7E
1506398572.95,8789,14.13,74512.8,0.61,-0.57,-0.61,0,*71
1506398574.12,8790,14.13,74504.3,0.61,-0.45,-0.49,0,*70
1506398575.29,8791,14.13,74504.8,0.61,-0.45,-0.41,0,*79
1506398576.47,8792,14.13,74508.8,0.59,-0.53,-0.61,0,*74
1506398577.65,8793,14.13,74506.5,0.59,-0.61,-0.61,0,*74
1506398578.83,8794,14.13,74502.8,0.59,-0.53,-0.65,0,*76
1506398580.02,8795,14.13,74506.0,0.59,-0.61,-0.53,0,*73
1506398581.21,8796,14.13,74510.5,0.59,-0.53,-0.41,0,*72
1506398582.4,8797,14.13,74508.0,0.59,-0.53,-0.49,0,*7B
1506398583.59,8798,14.13,74506.0,0.59,-0.53,-0.53,0,*7F
1506398584.78,8799,14.13,74512.0,0.59,-0.49,-0.53,0,*75
1506398585.96,8800,14.13,74514.0,0.59,-0.61,-0.53,0,*70
1506398587.14,8801,14.13,74518.8,0.59,-0.53,-0.61,0,*71
1506398588.33,8802,14.13,74516.8,0.59,-0.53,-0.53,0,*73
1506398589.52,8803,14.13,74520.0,0.59,-0.53,-0.53,0,*72
1506398590.7,8804,14.13,74520.0,0.59,-0.53,-0.53,0,*75
1506398591.9,8805,14.13,74520.3,0.59,-0.41,-0.37,0,*75
1506398593.09,8806,14.13,74518.0,0.59,-0.41,-0.49,0,*7F
1506398594.28,8807,14.13,74508.0,0.59,-0.49,-0.49,0,*76
1506398595.44,8808,14.13,74504.8,0.57,-0.57,-0.53,0,*73
1506398596.63,8809,14.13,74502.5,0.59,-0.49,-0.53,0,*73
1506398597.83,8810,14.06,74498.5,0.59,-0.41,-0.41,0,*70
1506398599.01,8811,14.13,74498.3,0.59,-0.29,-0.37,0,*7E
1506398600.2,8812,14.06,74494.5,0.59,-0.49,-0.49,0,*72
1506398601.39,8813,14.13,74494.5,0.59,-0.49,-0.49,0,*73
1506398602.58,8814,14.13,74498.0,0.59,-0.49,-0.53,0,*7F
1506398603.74,8815,14.13,74500.5,0.57,-0.45,-0.45,0,*7B
1506398604.93,8816,14.13,74502.5,0.59,-0.49,-0.49,0,*76
1506398606.11,8817,14.13,74502.3,0.59,-0.57,-0.57,0,*77
1506398607.3,8818,14.13,74500.5,0.59,-0.49,-0.49,0,*78
1506398608.5,8819,14.13,74502.3,0.59,-0.41,-0.41,0,*79
1506398609.69,8820,14.13,74506.3,0.59,-0.53,-0.49,0,*78
1506398610.88,8821,14.13,74510.8,0.59,-0.61,-0.49,0,*78
1506398612.08,8822,14.06,74510.3,0.59,-0.41,-0.41,0,*71
1506398613.26,8823,14.13,74516.8,0.59,-0.29,-0.29,0,*70
1506398614.44,8824,14.06,74510.5,0.59,-0.29,-0.29,0,*77
1506398615.63,8825,14.13,74508.5,0.59,-0.49,-0.37,0,*7F
1506398616.83,8826,14.13,74510.0,0.59,-0.41,-0.41,0,*75
1506398618.01,8827,14.13,74508.3,0.59,-0.37,-0.29,0,*7B
1506398619.19,8828,14.13,74512.5,0.59,-0.29,-0.29,0,*7B
1506398620.4,8829,14.13,74512.0,0.59,-0.29,-0.27,0,*74
1506398621.61,8830,14.13,74514.0,0.59,-0.29,-0.27,0,*7C
1506398622.76,8831,14.13,74516.0,0.61,-0.29,-0.29,0,*78
1506398624.0,8832,14.13,74512.0,0.59,-0.27,-0.23,0,*74
1506398625.18,8833,14.13,74518.0,0.59,-0.29,-0.29,0,*71
1506398626.36,8834,14.13,74514.5,0.61,-0.33,-0.23,0,*7C
1506398627.58,8835,14.13,74512.3,0.61,-0.27,-0.27,0,*7C
1506398628.79,8836,14.13,74510.3,0.61,-0.27,-0.27,0,*7F
1506398629.98,8837,14.13,74508.3,0.59,-0.41,-0.37,0,*74
1506398631.15,8838,14.13,74506.5,0.61,-0.33,-0.33,0,*71
1506398632.34,8839,14.13,74502.3,0.59,-0.41,-0.37,0,*7A
1506398633.54,8840,14.13,74506.8,0.59,-0.41,-0.41,0,*75
1506398634.75,8841,14.13,74508.5,0.59,-0.37,-0.27,0,*75
1506398635.92,8842,14.13,74510.8,0.61,-0.37,-0.33,0,*78
1506398637.11,8843,14.06,74506.8,0.59,-0.49,-0.49,0,*76
1506398638.27,8844,14.06,74508.0,0.61,-0.49,-0.53,0,*71
1506398639.44,8845,14.13,74506.3,0.61,-0.53,-0.49,0,*70
1506398640.6,8846,14.13,74508.5,0.61,-0.37,-0.45,0,*7D
1506398641.77,8847,14.13,74506.5,0.61,-0.37,-0.45,0,*7C
1506398642.94,8848,14.13,74506.5,0.61,-0.37,-0.37,0,*76
1506398644.12,8849,14.13,74510.0,0.59,-0.49,-0.49,0,*7C
1506398645.32,8850,14.13,74506.8,0.59,-0.49,-0.41,0,*7C
1506398646.51,8851,14.13,74510.8,0.59,-0.53,-0.49,0,*7E
1506398647.68,8852,14.13,74510.5,0.61,-0.37,-0.37,0,*7D
1506398648.84,8853,14.13,74508.3,0.61,-0.33,-0.33,0,*7C
1506398650.0,8854,14.06,74504.0,0.61,-0.33,-0.33,0,*7B
1506398651.19,8855,14.13,74510.3,0.59,-0.29,-0.29,0,*71
1506398652.38,8856,14.06,74508.0,0.59,-0.41,-0.37,0,*73
1506398653.58,8857,14.13,74508.5,0.59,-0.41,-0.37,0,*72
1506398654.77,8858,14.06,74504.8,0.59,-0.37,-0.37,0,*7C
1506398655.95,8859,14.13,74508.3,0.59,-0.37,-0.29,0,*72
1506398657.12,8860,14.13,74514.5,0.61,-0.37,-0.33,0,*78
1506398658.28,8861,14.06,74514.8,0.61,-0.45,-0.45,0,*7D
1506398659.45,8862,14.13,74514.5,0.61,-0.37,-0.45,0,*7B
1506398660.61,8863,14.13,74520.5,0.61,-0.33,-0.37,0,*7B
1506398661.78,8864,14.13,74520.0,0.61,-0.33,-0.33,0,*78
1506398662.94,8865,14.06,74522.3,0.61,-0.33,-0.33,0,*79
1506398664.13,8866,14.13,74520.3,0.59,-0.37,-0.37,0,*71
1506398665.32,8867,14.06,74512.5,0.59,-0.37,-0.37,0,*70
1506398666.54,8868,14.06,74512.3,0.61,-0.27,-0.27,0,*74
1506398667.72,8869,14.13,74514.5,0.61,-0.33,-0.27,0,*70
1506398668.91,8870,14.13,74512.5,0.61,-0.33,-0.27,0,*78
1506398670.12,8871,14.13,74514.5,0.61,-0.27,-0.27,0,*7C
1506398671.28,8872,14.06,74514.3,0.61,-0.33,-0.33,0,*7F
1506398672.46,8873,14.06,74514.0,0.59,-0.29,-0.29,0,*75
1506398673.63,8874,14.13,74516.3,0.61,-0.33,-0.33,0,*79
1506398674.79,8875,14.13,74520.8,0.61,-0.37,-0.33,0,*7C
1506398675.96,8876,14.06,74518.5,0.61,-0.37,-0.33,0,*7F
1506398677.13,8877,14.06,74518.0,0.61,-0.33,-0.33,0,*7A
1506398678.29,8878,14.13,74518.3,0.61,-0.37,-0.33,0,*71
1506398679.46,8879,14.06,74518.8,0.61,-0.37,-0.37,0,*74
1506398680.65,8880,14.13,74520.3,0.61,-0.33,-0.27,0,*77
1506398681.86,8881,14.06,74522.3,0.61,-0.27,-0.27,0,*73
1506398683.05,8882,14.06,74526.0,0.61,-0.27,-0.33,0,*75
1506398684.26,8883,14.13,74524.3,0.61,-0.27,-0.27,0,*71
1506398685.47,8884,14.06,74520.5,0.61,-0.27,-0.27,0,*76
1506398686.64,8885,14.13,74520.3,0.61,-0.33,-0.33,0,*77
1506398687.85,8886,14.13,74518.8,0.61,-0.27,-0.27,0,*74
1506398689.01,8887,14.06,74518.5,0.61,-0.33,-0.33,0,*75
1506398690.18,8888,14.06,74524.0,0.61,-0.33,-0.33,0,*7A
1506398691.35,8889,14.06,74524.3,0.61,-0.37,-0.37,0,*7B
1506398692.53,8890,14.06,74526.0,0.63,-0.33,-0.33,0,*71
1506398693.75,8891,14.06,74526.8,0.63,-0.27,-0.33,0,*75
1506398694.98,8892,14.06,74524.5,0.63,-0.27,-0.27,0,*73
1506398696.2,8893,14.13,74522.8,0.61,-0.27,-0.23,0,*74
1506398697.38,8894,14.06,74522.0,0.59,-0.37,-0.29,0,*73
1506398698.57,8895,14.06,74522.5,0.61,-0.27,-0.33,0,*73
1506398699.76,8896,14.06,74516.5,0.61,-0.33,-0.27,0,*70
1506398700.95,8897,14.06,74518.5,0.61,-0.37,-0.27,0,*75
1506398702.11,8898,14.06,74518.3,0.61,-0.37,-0.33,0,*7F
1506398703.3,8899,14.06,74518.0,0.61,-0.27,-0.33,0,*7F
1506398704.47,8900,14.13,74520.8,0.61,-0.33,-0.33,0,*7B
1506398705.66,8901,14.06,74522.0,0.63,-0.33,-0.33,0,*78
1506398706.84,8902,14.13,74526.3,0.63,-0.33,-0.33,0,*7B
1506398708.06,8903,14.06,74522.3,0.63,-0.27,-0.33,0,*7F
1506398709.25,8904,14.13,74524.3,0.63,-0.37,-0.33,0,*79
1506398710.46,8905,14.06,74524.8,0.63,-0.33,-0.27,0,*79
1506398711.67,8906,14.06,74526.5,0.63,-0.33,-0.27,0,*7A
1506398712.83,8907,14.06,74524.3,0.61,-0.33,-0.33,0,*7C
1506398714.01,8908,14.06,74522.8,0.65,-0.33,-0.23,0,*76
1506398715.18,8909,14.06,74520.3,0.61,-0.33,-0.37,0,*76
1506398716.34,8910,14.06,74522.3,0.61,-0.33,-0.33,0,*7A
1506398717.54,8911,14.06,74516.5,0.63,-0.45,-0.37,0,*7C
1506398718.72,8912,14.06,74514.3,0.63,-0.49,-0.49,0,*7A
1506398719.89,8913,14.06,74516.8,0.61,-0.45,-0.49,0,*75
1506398721.05,8914,14.06,74522.0,0.61,-0.61,-0.57,0,*7B
1506398722.22,8915,14.06,74526.0,0.61,-0.57,-0.49,0,*70
1506398723.43,8916,14.06,74520.3,0.61,-0.27,-0.27,0,*7C
1506398724.62,8917,14.06,74520.0,0.61,-0.27,-0.33,0,*78
1506398725.81,8918,14.06,74522.0,0.61,-0.27,-0.33,0,*77
1506398727.02,8919,14.06,74520.0,0.63,-0.33,-0.27,0,*74
1506398728.2,8920,14.13,74526.8,0.59,-0.29,-0.29,0,*72
1506398729.39,8921,14.06,74520.3,0.61,-0.33,-0.27,0,*7D
1506398730.55,8922,14.13,74522.5,0.61,-0.33,-0.37,0,*7F
1506398731.72,8923,14.06,74520.8,0.61,-0.33,-0.33,0,*7A
1506398732.88,8924,14.06,74520.8,0.61,-0.49,-0.45,0,*71
1506398734.07,8925,14.13,74524.0,0.63,-0.57,-0.57,0,*7E
1506398735.25,8926,14.06,74524.8,0.63,-0.61,-0.69,0,*75
1506398736.4,8927,14.06,74522.3,0.61,-0.61,-0.61,0,*7E
1506398737.57,8928,14.06,74522.3,0.61,-0.49,-0.45,0,*7D
1506398738.73,8929,14.06,74520.3,0.61,-0.37,-0.45,0,*75
1506398739.9,8930,14.06,74520.0,0.61,-0.37,-0.45,0,*7D
1506398741.06,8931,14.06,74522.8,0.61,-0.33,-0.37,0,*7D
1506398742.25,8932,14.06,74528.5,0.61,-0.33,-0.27,0,*7F
1506398743.44,8933,14.06,74524.3,0.61,-0.27,-0.33,0,*7E
1506398744.64,8934,14.06,74520.8,0.59,-0.41,-0.41,0,*77
1506398745.83,8935,14.06,74520.8,0.59,-0.49,-0.41,0,*7E
1506398747.0,8936,14.06,74520.0,0.61,-0.57,-0.49,0,*71
1506398748.2,8937,14.06,74526.5,0.59,-0.41,-0.41,0,*74
1506398749.36,8938,14.06,74516.3,0.61,-0.45,-0.33,0,*71
1506398750.55,8939,14.06,74522.0,0.63,-0.45,-0.33,0,*72
1506398751.72,8940,14.06,74520.5,0.61,-0.57,-0.57,0,*7F
1506398752.88,8941,14.06,74518.8,0.61,-0.49,-0.45,0,*72
1506398754.06,8942,14.06,74520.0,0.61,-0.33,-0.27,0,*78
1506398755.23,8943,14.06,74522.3,0.61,-0.37,-0.33,0,*78
1506398756.4,8944,14.06,74526.0,0.61,-0.49,-0.45,0,*77
1506398757.58,8945,14.06,74526.3,0.63,-0.57,-0.57,0,*78
1506398758.75,8946,14.06,74528.0,0.61,-0.49,-0.49,0,*79
1506398759.91,8947,14.06,74530.3,0.61,-0.37,-0.45,0,*7D
1506398761.11,8948,14.06,74526.5,0.59,-0.37,-0.41,0,*7D
1506398762.28,8949,14.06,74526.8,0.61,-0.37,-0.33,0,*72
1506398763.44,8950,14.06,74526.5,0.61,-0.33,-0.37,0,*7A
1506398764.63,8951,14.06,74526.3,0.61,-0.33,-0.27,0,*7A
1506398765.79,8952,14.06,74524.8,0.61,-0.33,-0.33,0,*7C
1506398766.97,8953,14.06,74526.0,0.61,-0.33,-0.23,0,*7C
1506398768.17,8954,14.06,74524.5,0.59,-0.37,-0.37,0,*71
1506398769.33,8955,14.06,74530.5,0.61,-0.37,-0.45,0,*7E
1506398770.52,8956,14.06,74526.8,0.61,-0.37,-0.27,0,*79
1506398771.68,8957,14.06,74528.0,0.61,-0.33,-0.33,0,*79
1506398772.89,8958,14.06,74524.5,0.61,-0.27,-0.23,0,*72
1506398774.06,8959,14.06,74520.3,0.61,-0.33,-0.33,0,*77
1506398775.25,8960,14.06,74522.3,0.63,-0.33,-0.33,0,*7F
1506398776.44,8961,14.06,74516.8,0.63,-0.33,-0.33,0,*7E
1506398777.62,8962,14.06,74532.5,0.63,-0.49,-0.45,0,*71
1506398778.81,8963,14.06,74528.5,0.63,-0.45,-0.45,0,*7C
1506398780.0,8964,14.06,74526.0,0.63,-0.37,-0.37,0,*7B
1506398781.17,8965,14.06,74522.3,0.65,-0.41,-0.41,0,*7C
1506398782.34,8966,14.06,74520.5,0.65,-0.41,-0.45,0,*7B
1506398783.53,8967,14.06,74526.3,0.63,-0.49,-0.45,0,*74
1506398784.69,8968,14.06,74522.8,0.61,-0.33,-0.37,0,*71
1506398785.88,8969,14.06,74522.8,0.63,-0.33,-0.33,0,*76
1506398787.07,8970,14.06,74526.8,0.63,-0.49,-0.49,0,*7E
1506398788.25,8971,14.06,74522.3,0.63,-0.61,-0.57,0,*7A
1506398789.44,8972,14.06,74518.0,0.63,-0.69,-0.57,0,*71
1506398790.6,8973,14.06,74522.5,0.61,-0.49,-0.45,0,*73
1506398791.76,8974,14.06,74514.8,0.61,-0.49,-0.57,0,*77
1506398792.95,8975,14.06,74516.8,0.63,-0.57,-0.61,0,*7E
1506398794.11,8976,14.06,74516.0,0.61,-0.49,-0.49,0,*7A
1506398795.31,8977,14.06,74514.8,0.59,-0.41,-0.41,0,*70
1506398796.48,8978,14.06,74504.0,0.61,-0.45,-0.45,0,*74
1506398797.64,8979,14.06,74510.3,0.61,-0.57,-0.61,0,*70
1506398798.79,8980,14.06,74506.5,0.61,-0.61,-0.65,0,*77
1506398799.96,8981,14.06,74514.3,0.61,-0.37,-0.37,0,*72
1506398801.12,8982,14.06,74510.0,0.61,-0.37,-0.45,0,*74
1506398802.32,8983,14.06,74516.0,0.59,-0.65,-0.73,0,*7C
1506398803.48,8984,14.06,74512.8,0.61,-0.69,-0.69,0,*77
1506398804.67,8985,14.06,74512.8,0.59,-0.65,-0.65,0,*7D
1506398805.83,8986,14.06,74512.5,0.61,-0.57,-0.49,0,*7A
1506398807.0,8987,14.06,74516.0,0.61,-0.57,-0.61,0,*71
1506398808.18,8988,14.06,74520.3,0.59,-0.65,-0.65,0,*70
1506398809.37,8989,14.06,74520.0,0.59,-0.73,-0.65,0,*76
1506398810.55,8990,14.06,74516.5,0.59,-0.65,-0.65,0,*79
1506398811.72,8991,14.06,74518.8,0.61,-0.57,-0.57,0,*73
1506398812.88,8992,14.06,74518.5,0.61,-0.49,-0.49,0,*70
1506398814.06,8993,14.06,74516.0,0.59,-0.61,-0.53,0,*7B
1506398815.23,8994,14.06,74518.0,0.61,-0.37,-0.37,0,*76
1506398816.4,8995,14.06,74518.0,0.61,-0.37,-0.37,0,*77
1506398817.57,8996,14.06,74518.5,0.61,-0.37,-0.33,0,*70
1506398818.73,8997,14.06,74518.3,0.61,-0.37,-0.29,0,*7A
1506398819.92,8998,14.06,74518.0,0.59,-0.49,-0.37,0,*78
1506398821.09,8999,14.06,74518.5,0.61,-0.37,-0.37,0,*7B
1506398822.28,9000,14.06,74516.5,0.59,-0.49,-0.41,0,*70
1506398823.48,9001,14.06,74516.8,0.59,-0.41,-0.41,0,*79
1506398824.66,9002,14.06,74520.5,0.59,-0.53,-0.61,0,*7B
1506398825.83,9003,14.06,74522.3,0.61,-0.49,-0.49,0,*70
1506398827.01,9004,14.06,74524.3,0.59,-0.61,-0.53,0,*7D
1506398828.18,9005,14.06,74526.3,0.61,-0.41,-0.49,0,*7E
1506398829.37,9006,14.06,74522.5,0.59,-0.41,-0.49,0,*76
1506398830.57,9007,14.06,74524.3,0.59,-0.41,-0.41,0,*7F
1506398831.74,9008,14.06,74526.5,0.61,-0.37,-0.45,0,*7E
1506398832.92,9009,14.06,74530.8,0.61,-0.33,-0.27,0,*7F
1506398834.11,9010,14.06,74530.0,0.59,-0.29,-0.37,0,*76
1506398835.27,9011,14.06,74530.0,0.61,-0.33,-0.33,0,*73
1506398836.47,9012,14.06,74526.8,0.59,-0.37,-0.37,0,*7B
1506398837.63,9013,14.06,74526.8,0.61,-0.57,-0.45,0,*72
1506398838.8,9014,14.06,74526.5,0.61,-0.57,-0.45,0,*75
1506398839.98,9015,14.06,74526.3,0.59,-0.61,-0.57,0,*79
1506398841.14,9016,14.06,74524.8,0.61,-0.49,-0.45,0,*78
1506398842.33,9017,14.06,74528.8,0.59,-0.53,-0.49,0,*75
1506398843.5,9018,14.06,74530.3,0.61,-0.45,-0.49,0,*76
1506398844.67,9019,14.06,74532.3,0.61,-0.37,-0.45,0,*7E
1506398845.86,9020,14.06,74532.3,0.59,-0.41,-0.37,0,*7B
1506398847.02,9021,14.06,74532.8,0.61,-0.33,-0.33,0,*70
1506398848.22,9022,14.06,74532.5,0.61,-0.27,-0.33,0,*76
1506398849.4,9023,14.06,74534.5,0.61,-0.33,-0.27,0,*77
1506398850.56,9024,14.06,74530.8,0.61,-0.33,-0.33,0,*75
1506398851.73,9025,14.06,74526.8,0.61,-0.33,-0.33,0,*74
1506398852.93,9026,14.06,74526.3,0.59,-0.41,-0.41,0,*7C
1506398854.09,9027,14.06,74526.5,0.61,-0.45,-0.33,0,*77
1506398855.26,9028,14.06,74526.5,0.61,-0.37,-0.37,0,*79
1506398856.45,9029,14.06,74522.5,0.63,-0.45,-0.45,0,*7A
1506398857.64,9030,14.06,74520.5,0.63,-0.45,-0.37,0,*77
1506398858.8,9031,14.06,74518.8,0.65,-0.41,-0.29,0,*7B
1506398859.99,9032,14.06,74516.5,0.61,-0.33,-0.27,0,*77
1506398861.18,9033,14.06,74516.0,0.63,-0.45,-0.37,0,*74
1506398862.35,9034,14.06,74514.0,0.61,-0.49,-0.49,0,*74
1506398863.51,9035,14.06,74512.5,0.61,-0.49,-0.45,0,*79
1506398864.67,9036,14.06,74504.8,0.61,-0.49,-0.37,0,*7F
1506398865.84,9037,14.06,74510.8,0.61,-0.45,-0.37,0,*72
1506398867.0,9038,14.06,74510.3,0.61,-0.45,-0.45,0,*78
1506398868.17,9039,14.06,74508.3,0.61,-0.57,-0.57,0,*79
1506398869.34,9040,14.06,74510.8,0.61,-0.73,-0.69,0,*7C
1506398870.55,9041,14.06,74514.0,0.61,-0.85,-0.85,0,*76
1506398871.73,9042,14.06,74512.8,0.59,-0.77,-0.65,0,*7D
1506398872.89,9043,14.06,74506.0,0.61,-0.61,-0.61,0,*74
1506398874.07,9044,14.06,74510.0,0.59,-0.65,-0.65,0,*78
1506398875.25,9045,14.06,74508.3,0.59,-0.61,-0.61,0,*79
1506398876.4,9046,14.06,74508.5,0.61,-0.61,-0.61,0,*71
1506398877.57,9047,14.06,74508.0,0.61,-0.73,-0.69,0,*7B
1506398878.74,9048,14.06,74508.3,0.61,-0.73,-0.69,0,*74
1506398879.91,9049,14.06,74508.5,0.61,-0.73,-0.61,0,*7D
1506398881.07,9050,14.06,74508.5,0.61,-0.49,-0.57,0,*79
1506398882.25,9051,14.06,74508.5,0.59,-0.53,-0.53,0,*7C
1506398883.44,9052,14.06,74508.5,0.59,-0.53,-0.61,0,*7E
1506398884.6,9053,14.06,74508.5,0.61,-0.37,-0.45,0,*70
1506398885.79,9054,14.06,74512.5,0.59,-0.65,-0.65,0,*79
1506398886.97,9055,14.06,74508.5,0.59,-0.65,-0.65,0,*78
1506398888.16,9056,14.06,74508.3,0.59,-0.65,-0.65,0,*7B
1506398889.34,9057,14.06,74514.0,0.59,-0.65,-0.65,0,*7A
1506398890.53,9058,14.06,74514.8,0.59,-0.49,-0.41,0,*7D
1506398891.72,9059,14.06,74518.3,0.59,-0.53,-0.49,0,*7F
1506398892.89,9060,14.06,74518.8,0.61,-0.45,-0.49,0,*79
1506398894.05,9061,14.06,74516.3,0.57,-0.53,-0.45,0,*76
1506398895.25,9062,14.06,74514.3,0.59,-0.41,-0.41,0,*7C
1506398896.45,9063,14.06,74516.8,0.59,-0.41,-0.41,0,*7D
1506398897.65,9064,14.06,74514.5,0.59,-0.41,-0.41,0,*7A
1506398898.83,9065,14.06,74520.0,0.59,-0.61,-0.61,0,*7B
1506398899.99,9066,14.06,74518.5,0.61,-0.49,-0.49,0,*73
1506398901.17,9067,14.06,74514.5,0.59,-0.61,-0.61,0,*79
1506398902.35,9068,14.06,74516.8,0.59,-0.61,-0.53,0,*77
1506398903.54,9069,14.06,74514.8,0.59,-0.49,-0.49,0,*77
1506398904.73,9070,14.06,74518.0,0.59,-0.53,-0.53,0,*7F
1506398905.91,9071,14.06,74514.3,0.59,-0.65,-0.61,0,*7A